Location: �quemauville
(49.3941°N, 0.2076°E)
Time: 20:11:38
(UTC+00:00)

Daily predictions for brighter satellites

Satellite Brightness Start Highest point End
(mag) Time Altitude Azimuth Time Altitude Azimuth Time Altitude Azimuth
H-2A R/B 2.7 18:03:29 10° SE 18:08:04 35° ENE 18:12:48 10° N
KORONAS-FOTON 4.0 18:09:15 10° N 18:13:06 50° ENE 18:16:54 10° SSE
SAR-Lupe-4 4.4 18:10:24 10° N 18:13:57 56° WNW 18:17:27 10° SSW
Meteor 1-12 Rocket 4.3 18:08:16 10° S 18:14:06 87° E 18:19:51 10° NNE
Cosmos 2285 Rocket 4.1 18:08:20 10° S 18:14:32 61° ESE 18:20:49 10° NNE
Cosmos 1025 Rocket 3.3 18:11:30 10° NNW 18:15:55 77° W 18:20:18 10° S
Cosmos 1300 Rocket 3.7 18:12:38 10° S 18:17:04 87° WNW 18:21:33 10° N
ISS -3.5 18:14:30 10° WNW 18:17:51 60° N 18:21:09 10° E
Cosmos 1805 3.7 18:17:27 10° SSE 18:21:05 38° E 18:24:44 10° NNE
TSX-5 4.3 18:17:21 10° SSW 18:21:23 57° ESE 18:26:38 10° NE
Cosmos 1707 4.4 18:19:54 10° NNW 18:23:30 39° W 18:27:04 10° SSW
Cosmos 2278 Rocket 3.0 18:18:48 10° SSE 18:23:35 29° ESE 18:28:22 10° NE
Cosmos 1125 Rocket 3.7 18:24:27 10° SSW 18:29:47 81° WNW 18:35:09 10° NNE
Cosmos 1833 Rocket 2.9 18:24:18 10° NNW 18:29:52 55° NE 18:35:24 10° SE
Cosmos 1844 3.9 18:24:46 10° SW 18:30:27 76° WNW 18:36:05 10° NNE
Nadezhda 4 Rocket 4.0 18:24:52 10° N 18:31:02 87° ENE 18:37:12 10° S
Cosmos 2251 Rocket 4.4 18:26:30 10° N 18:31:16 31° NE 18:35:38 12° ESE
HJ-1C 3.8 18:28:35 10° SE 18:31:43 41° ENE 18:34:53 10° N
CSL-04 Rocket 3.8 18:26:20 10° SSE 18:31:45 62° ENE 18:37:15 10° N
Okean 1 Rocket 3.3 18:27:54 10° SSE 18:32:13 48° E 18:36:33 10° NNE
COSMOS 2406 3.2 18:30:35 10° NNW 18:36:18 77° ENE 18:41:59 10° SSE
Cosmos 1340 Rocket 3.5 18:33:44 10° SSE 18:37:15 31° E 18:40:50 10° NNE
CSL-04 Debris 4.1 18:32:10 10° SSE 18:37:31 72° ENE 18:42:55 10° NNW
Lacrosse 4 Rocket 1.6 18:37:51 10° NNW 18:41:52 51° NE 18:45:16 14° SE
YAOGAN 1 2.7 18:37:54 10° S 18:42:13 79° WSW 18:46:35 10° NNW
Cosmos 1674 3.0 18:39:34 10° NNW 18:43:25 71° W 18:47:13 10° S
Lacrosse 5 rocket 1.9 18:39:24 10° NW 18:43:41 52° NNE 18:46:58 17° E
CZ-4C R/B 3.0 18:44:36 10° SSE 18:48:39 25° ESE 18:53:15 10° ENE
Exosat Rocket 3.5 18:45:50 10° SSW 18:50:58 87° WNW 18:56:09 10° NNE
Shenzhou-11 Module 3.8 18:53:34 10° SSW 18:54:01 10° SSW 18:54:23 10° S
CZ-4 R/B 2.5 18:51:19 10° S 18:55:20 47° W 18:59:20 10° NNW
Meteor 1-15 Rocket 4.4 18:51:09 10° SSW 18:56:52 81° WNW 19:02:44 10° N
Cosmos 1892 Rocket 3.8 18:53:34 10° N 18:57:47 46° ENE 19:01:33 12° SSE
ARGOS 3.1 18:54:08 10° SSE 18:59:27 70° ENE 19:04:51 10° N
FREGAT/IRIS 4.3 19:01:26 16° NE 19:01:26 16° NE 19:02:22 10° NNE
Meteor 1-24 Rocket 3.7 18:54:47 10° N 19:00:29 76° ENE 19:06:21 10° SSE
CZ-2C R/B 3.3 18:56:40 10° NNE 19:01:43 33° E 19:06:45 10° SSE
MOS 1 Rocket 3.0 18:57:33 10° NNE 19:01:49 59° E 19:06:03 10° S
APEX 3.9 19:00:01 10° SSE 19:02:56 28° ESE 19:03:27 27° E
Cosmos 1626 2.0 18:59:57 10° N 19:03:40 84° E 19:07:22 10° S
USA 186 2.2 19:04:00 30° ESE 19:05:06 41° ENE 19:08:12 10° N
Cosmos 2034 Rocket 4.5 18:58:50 10° SSW 19:05:07 65° WNW 19:11:24 10° N
Meteor 1-22 Rocket 4.3 19:01:35 10° S 19:07:32 68° E 19:13:38 10° NNE
Aureole 2 Rocket 2.3 19:05:25 10° SSW 19:08:43 81° WNW 19:11:58 10° NNE
SL-14 R/B 3.2 19:05:44 10° N 19:09:45 85° E 19:13:46 10° S
Cosmos 1470 3.3 19:08:02 23° SE 19:09:46 34° E 19:13:17 10° NNE
Ariane Rocket 3.2 19:06:14 16° SE 19:10:08 52° ENE 19:15:05 10° N
Resurs 01 Rocket 3.2 19:10:02 19° ENE 19:10:12 19° ENE 19:13:17 10° NNE
Cosmos 1766 3.5 19:08:09 10° SSW 19:12:06 73° WNW 19:16:05 10° N
USA 116 4.2 19:09:15 10° N 19:13:12 69° WNW 19:17:39 10° SSW
NOSS 3-4 (A) 3.7 19:08:50 10° SW 19:14:47 72° NW 19:21:14 10° NE
NOSS 3-4 (C) 3.7 19:08:56 10° SW 19:14:53 72° NW 19:21:20 10° NE
SL-8 R/B 4.4 19:11:29 10° SW 19:15:49 34° SSE 19:17:03 29° ESE
Cosmos 2098 Rocket 4.1 19:11:36 10° N 19:17:22 39° ENE 19:19:21 29° ESE
Cosmos 1733 3.5 19:13:47 10° SSW 19:17:35 69° W 19:21:24 10° N
MetOp-A 4.3 19:16:54 22° SE 19:20:15 53° ENE 19:25:28 10° N
Cosmos 407 Rocket 4.5 19:17:54 10° N 19:22:21 28° NE 19:23:25 26° ENE
Meteor 2-5 Rocket 4.4 19:16:58 10° NNW 19:22:36 60° W 19:28:20 10° S
Resurs 1-3 4.3 19:23:00 32° E 19:23:28 33° ENE 19:27:25 10° N
RESURS DK-1 2.2 19:19:43 10° SSW 19:23:49 66° ESE 19:27:58 10° NE
ATLAS 3B R/B 3.1 19:18:35 10° NW 19:25:21 63° SW 19:31:52 12° SSE
Cosmos 1634 Rocket 3.9 19:20:35 10° S 19:26:46 89° E 19:33:03 10° N
SL-08 RB Rocket 3.6 19:23:00 14° SSE 19:26:51 86° ENE 19:31:22 10° NNW
deb Kosmos-1763 4.3 19:24:14 10° NNW 19:27:45 46° ENE 19:27:49 46° ENE
USA 290 4.0 19:28:25 10° N 19:30:10 21° NNE 19:30:10 21° NNE
Cosmos 2026 Rocket 4.3 19:28:04 10° NNW 19:34:25 70° W 19:40:44 10° S
Cosmos 1602 Rocket 4.5 19:31:01 10° N 19:34:33 31° ENE 19:34:33 31° ENE
Cosmos 1461 3.3 19:30:45 10° NW 19:35:30 61° NE 19:36:42 45° ESE
Cosmos 2082 Rocket 2.1 19:30:30 10° NNW 19:36:11 86° WSW 19:39:28 26° SSE
ATLAS 2AS CENTAUR R/B 3.4 19:29:28 10° SW 19:37:25 68° NW 19:45:15 10° NE
Meteor 2-10 4.3 19:35:05 25° SSE 19:37:53 47° E 19:42:55 10° NNE
Cosmos 1626 Rocket 3.8 19:39:46 10° N 19:44:08 50° ENE 19:44:08 50° ENE
H-2A R/B 3.4 19:42:44 10° SSW 19:47:27 38° W 19:52:20 10° NNW
COSMOS 2455 2.7 19:41:40 10° SSW 19:47:38 69° ESE 19:53:40 10° NE
Cosmos 1455 Rocket 2.9 19:43:55 10° S 19:48:18 88° E 19:52:40 10° N
Cosmos 2084 4.0 19:45:55 10° NW 19:50:13 44° NE 19:50:28 43° NE
SJ-6B 2.8 19:50:50 57° SSW 19:51:30 75° WSW 19:55:23 10° NNW
IRS-1A Rocket 4.5 19:48:52 17° S 19:53:29 75° WSW 19:59:17 10° NNW
OBJECT-B 2.3 19:55:53 31° N 19:55:53 31° N 19:57:45 10° N
ISS -2.9 19:51:23 10° WNW 19:54:07 47° WSW 19:54:07 47° WSW
Cosmos 2279 Rocket 3.9 19:49:12 10° S 19:55:28 89° W 20:01:48 10° N
Meteor 1-21 Rocket 4.2 19:50:43 10° N 19:56:34 69° ENE 19:58:18 46° SE
DMSP B5D2-2 3.9 19:53:45 10° NNE 19:59:05 78° ESE 20:04:21 10° S
Meteor 2-19 Rocket 4.4 19:53:09 10° NNW 19:59:16 81° W 20:03:15 23° S
Cosmos 1655 Rocket 3.9 19:54:50 10° N 20:01:12 84° E 20:04:13 34° SSE
ATLAS CENTAUR R/B 3.3 20:03:46 10° NNW 20:05:28 17° NNE 20:05:28 17° NNE
Cosmos 2180 Rocket 4.4 20:00:37 10° S 20:06:56 88° E 20:13:22 10° N
Cosmos 2278 Rocket 2.9 20:01:50 10° SW 20:07:22 54° NW 20:12:57 10° NNE
Cosmos 909 Rocket 4.3 20:02:06 10° NW 20:08:27 64° WSW 20:10:59 36° S
Gbstr 26 Del rocket 4.2 20:02:49 10° WSW 20:09:46 78° SSE 20:13:01 39° ENE
Cosmos 1833 Rocket 4.4 20:08:43 10° NW 20:13:29 29° WSW 20:18:13 10° SSW
Cosmos 2251 Rocket 4.3 20:08:38 10° NNW 20:13:46 48° WSW 20:16:09 29° SSW
Cosmos 1190 Rocket 4.2 20:09:19 10° NNW 20:14:05 53° NE 20:14:05 53° NE
Lacrosse 4 Rocket 3.5 20:17:10 10° WNW 20:20:13 20° WSW 20:21:36 17° SW
Lacrosse 5 rocket 2.4 20:18:38 10° WNW 20:22:36 42° SW 20:22:36 42° SW
Cosmos 1758 4.4 20:26:34 41° W 20:27:01 43° WNW 20:30:54 10° N
MetOp-B 4.3 20:35:17 61° NNE 20:35:17 61° NNE 20:39:51 10° NNW
CZ-4C R/B 2.4 20:31:23 10° SW 20:36:29 66° NW 20:42:42 10° NE
SPOT 3 Rocket 3.8 20:38:02 61° WSW 20:38:14 62° WSW 20:43:23 10° NNW
Cosmos 2266 Rocket 4.1 20:33:38 10° NNW 20:39:37 68° W 20:40:53 54° SSW
Spot 2 Rocket 4.4 20:42:33 39° NNE 20:42:33 39° NNE 20:45:52 10° N
CZ-2C R/B 3.7 20:36:49 10° N 20:42:08 45° WNW 20:47:26 10° SW
Cosmos 1140 Rocket 3.9 20:37:33 10° NNW 20:41:42 58° NNW 20:41:42 58° NNW
Terra 4.0 20:45:21 17° NNE 20:45:21 17° NNE 20:46:44 10° N
Resurs 01 Rocket 2.8 20:47:36 42° NW 20:47:36 42° NW 20:50:42 10° NNW
Meteor 2-21 Rocket 4.5 20:40:17 10° N 20:45:56 69° NNE 20:45:56 69° NNE
ARIANE 5 R/B 4.5 21:02:25 27° NNW 21:02:25 27° NNW 21:04:25 10° NNW
USA 229 DEB 4.2 20:54:59 10° NW 21:01:56 51° NE 21:02:11 51° NE
USA 229 4.2 20:55:05 10° NW 21:02:02 50° NE 21:02:17 50° NE
Cosmos 407 Rocket 4.4 20:59:37 10° NNW 21:03:37 44° WNW 21:03:37 44° WNW
NOSS 3-1 (A) 4.4 21:07:26 10° NW 21:14:21 50° NE 21:14:31 50° NE
Cosmos 2297 Rocket 4.4 21:23:12 10° N 21:25:58 16° NNE 21:25:58 16° NNE
ATLAS 2AS CENTAUR R/B 4.4 21:22:49 10° W 21:29:49 32° NNW 21:36:35 10° NE
COSMOS 2455 4.4 21:28:41 10° W 21:34:04 33° NW 21:39:30 10° NNE
NOSS 3-1 (C) 4.2 21:41:25 10° NW 21:47:29 66° NW 21:47:29 66° NW
CZ-4C R/B 4.2 22:21:26 10° WNW 22:26:14 27° NNW 22:31:51 10° NE
Cosmos 2227 Rocket 4.4 22:21:53 10° NNW 22:23:53 19° N 22:23:53 19° N
ATLAS 2AS CENTAUR R/B 4.5 23:16:30 10° NW 23:23:08 29° N 23:25:52 23° NE
